Location: Unspecified
(0.0000°N, 0.0000°E)
Time: 19:45:53
(UTC+00:00)

N. Korean satellite - Visible Passes

Search period start: 27 May 2018 00:00
Search period end: 06 June 2018 00:00
Orbit: 458 x 513 km, 97.2° (Epoch: 26 May)

Date Brightness Start Highest point End Pass type
(mag) Time Alt. Az. Time Alt. Az. Time Alt. Az.
27 May 7.9 18:28:38 10° S 18:31:56 40° W 18:35:11 10° NNW visible
30 May 9.6 05:29:18 10° ENE 05:31:51 18° ESE 05:34:24 10° SE visible
30 May 9.4 18:50:50 10° SW 18:53:13 18° W 18:55:35 10° WNW visible
31 May 7.7 18:25:55 10° S 18:29:15 45° W 18:32:31 10° NNW visible
03 Jun 9.6 05:26:47 10° ENE 05:29:10 16° ESE 05:31:34 10° SE visible
03 Jun 9.2 18:47:58 10° SSW 18:50:29 19° WSW 18:52:59 10° NW visible
04 Jun 7.4 18:23:09 10° S 18:26:30 50° W 18:29:49 10° NNW visible
